When you browse on this site, cookies collect data to enhance your experience and personalize the content and advertising you see.
Visit our Privacy Policy to learn more. By continuing to use the site, you agree to this use of cookies and data.
  • In Portugal
  • List of Countries
  • For 7 days
  • Water Temperature
  • Satellite Maps
  • Weather Map
  • Weather Widgets
  • user-avatar
    Login

    Hourly Weather Barisal

    Today, 24 May, Friday

    Time Temperature Precipitation Wind Pressure Humidity
    00:00 +32°C° 0 mm 2 mps 754 mmHg 75%
    01:00 +33°C° 0 mm 3 mps 753 mmHg 75%
    02:00 +33°C° 0 mm 3 mps 753 mmHg 76%
    03:00 +33°C° 0 mm 4 mps 753 mmHg 77%
    04:00 +33°C° 0 mm 4 mps 753 mmHg 77%
    05:00 +33°C° 0 mm 4 mps 753 mmHg 78%
    06:00 +33°C° 0 mm 3 mps 754 mmHg 79%
    07:00 +33°C° 0 mm 4 mps 754 mmHg 75%
    08:00 +34°C° 0 mm 4 mps 754 mmHg 70%
    09:00 +35°C° 0 mm 5 mps 754 mmHg 65%
    10:00 +38°C° 0 mm 6 mps 754 mmHg 58%
    11:00 +40°C° 0 mm 6 mps 754 mmHg 51%
    12:00 +41°C° 0 mm 6 mps 753 mmHg 46%
    13:00 +40°C° 0 mm 6 mps 753 mmHg 48%
    14:00 +40°C° 0 mm 7 mps 752 mmHg 50%
    15:00 +40°C° 0 mm 8 mps 752 mmHg 51%
    16:00 +38°C° 0 mm 8 mps 751 mmHg 56%
    17:00 +36°C° 0 mm 7 mps 751 mmHg 60%
    18:00 +36°C° 0 mm 4 mps 751 mmHg 60%
    19:00 +35°C° 0.4 mm 5 mps 751 mmHg 65%
    20:00 +34°C° 0.4 mm 5 mps 752 mmHg 70%
    21:00 +33°C° 0.4 mm 6 mps 752 mmHg 74%
    22:00 +33°C° 0 mm 5 mps 752 mmHg 74%
    23:00 +33°C° 0 mm 5 mps 752 mmHg 74%

    Tomorrow, 25 May, Saturday

    Time Temperature Precipitation Wind Pressure Humidity
    00:00 +33°C° 0 mm 5 mps 752 mmHg 74%
    01:00 +33°C° 0 mm 5 mps 752 mmHg 74%
    02:00 +33°C° 0 mm 5 mps 752 mmHg 75%
    03:00 +33°C° 0 mm 4 mps 752 mmHg 75%
    04:00 +33°C° 0 mm 4 mps 752 mmHg 75%
    05:00 +33°C° 0 mm 4 mps 752 mmHg 75%
    06:00 +33°C° 0 mm 4 mps 752 mmHg 75%
    07:00 +34°C° 0 mm 5 mps 752 mmHg 70%
    08:00 +35°C° 0 mm 5 mps 752 mmHg 65%
    09:00 +36°C° 0 mm 6 mps 752 mmHg 61%
    10:00 +36°C° 0 mm 6 mps 752 mmHg 61%
    11:00 +36°C° 0 mm 6 mps 752 mmHg 62%
    12:00 +36°C° 0 mm 7 mps 752 mmHg 62%
    13:00 +38°C° 0 mm 7 mps 751 mmHg 62%
    14:00 +38°C° 0 mm 7 mps 751 mmHg 62%
    15:00 +38°C° 0 mm 6 mps 750 mmHg 62%
    16:00 +36°C° 0 mm 6 mps 750 mmHg 64%
    17:00 +36°C° 0 mm 6 mps 749 mmHg 66%
    18:00 +35°C° 0 mm 6 mps 748 mmHg 68%
    19:00 +35°C° 0 mm 6 mps 749 mmHg 70%
    20:00 +34°C° 0 mm 6 mps 750 mmHg 72%
    21:00 +34°C° 0 mm 6 mps 751 mmHg 74%
    22:00 +33°C° 0 mm 5 mps 751 mmHg 75%
    23:00 +33°C° 0 mm 5 mps 751 mmHg 76%

    Day after tomorrow, 26 May, Sunday

    Time Temperature Precipitation Wind Pressure Humidity
    00:00 +33°C° 0 mm 4 mps 751 mmHg 77%
    01:00 +33°C° 0 mm 4 mps 750 mmHg 78%
    02:00 +33°C° 0 mm 4 mps 750 mmHg 79%
    03:00 +33°C° 0 mm 4 mps 750 mmHg 80%
    04:00 +33°C° 0 mm 4 mps 750 mmHg 81%
    05:00 +33°C° 0 mm 4 mps 750 mmHg 81%
    06:00 +33°C° 0 mm 4 mps 751 mmHg 81%
    07:00 +35°C° 0 mm 4 mps 751 mmHg 73%
    08:00 +36°C° 0 mm 4 mps 752 mmHg 65%
    09:00 +38°C° 0 mm 4 mps 753 mmHg 57%
    10:00 +40°C° 0 mm 5 mps 752 mmHg 53%
    11:00 +41°C° 0 mm 5 mps 752 mmHg 49%
    12:00 +42°C° 0 mm 6 mps 752 mmHg 45%
    13:00 +42°C° 0.1 mm 6 mps 751 mmHg 48%
    14:00 +41°C° 0.1 mm 7 mps 751 mmHg 50%
    15:00 +41°C° 0.1 mm 8 mps 750 mmHg 52%
    16:00 +39°C° 0.7 mm 7 mps 750 mmHg 56%
    17:00 +38°C° 0.7 mm 6 mps 750 mmHg 60%
    18:00 +36°C° 0.7 mm 5 mps 750 mmHg 65%
    19:00 +35°C° 0 mm 6 mps 750 mmHg 68%
    20:00 +35°C° 0 mm 6 mps 751 mmHg 72%
    21:00 +34°C° 0 mm 7 mps 751 mmHg 76%
    22:00 +34°C° 0 mm 6 mps 751 mmHg 77%
    23:00 +33°C° 0 mm 5 mps 751 mmHg 79%

    27 May, Monday

    Time Temperature Precipitation Wind Pressure Humidity
    00:00 +33°C° 0 mm 5 mps 751 mmHg 80%
    01:00 +33°C° 0 mm 4 mps 751 mmHg 81%
    02:00 +33°C° 0 mm 4 mps 751 mmHg 82%
    03:00 +33°C° 0 mm 4 mps 751 mmHg 83%
    04:00 +33°C° 0 mm 4 mps 751 mmHg 80%
    05:00 +33°C° 0 mm 4 mps 751 mmHg 78%
    06:00 +33°C° 0 mm 4 mps 751 mmHg 76%
    07:00 +34°C° 0 mm 4 mps 752 mmHg 73%
    08:00 +35°C° 0 mm 4 mps 752 mmHg 70%
    09:00 +35°C° 0 mm 5 mps 752 mmHg 67%
    10:00 +37°C° 0 mm 5 mps 752 mmHg 59%
    11:00 +40°C° 0 mm 5 mps 752 mmHg 52%
    12:00 +42°C° 0 mm 6 mps 752 mmHg 44%
    13:00 +42°C° 0 mm 6 mps 751 mmHg 44%
    14:00 +42°C° 0 mm 6 mps 751 mmHg 44%
    15:00 +42°C° 0 mm 6 mps 750 mmHg 44%
    16:00 +41°C° 0 mm 6 mps 750 mmHg 50%
    17:00 +39°C° 0 mm 6 mps 750 mmHg 56%
    18:00 +36°C° 0 mm 7 mps 750 mmHg 63%
    19:00 +35°C° 0 mm 6 mps 750 mmHg 68%
    20:00 +35°C° 0 mm 6 mps 751 mmHg 73%
    21:00 +34°C° 0 mm 5 mps 751 mmHg 77%
    22:00 +33°C° 0 mm 5 mps 751 mmHg 79%
    23:00 +33°C° 0 mm 5 mps 751 mmHg 80%

    28 May, Tuesday

    Time Temperature Precipitation Wind Pressure Humidity
    00:00 +33°C° 0 mm 5 mps 751 mmHg 81%
    01:00 +33°C° 0 mm 5 mps 751 mmHg 81%
    02:00 +33°C° 0 mm 5 mps 751 mmHg 80%
    03:00 +33°C° 0 mm 5 mps 751 mmHg 79%
    04:00 +33°C° 0 mm 5 mps 751 mmHg 77%
    05:00 +33°C° 0 mm 4 mps 752 mmHg 76%
    06:00 +33°C° 0 mm 4 mps 752 mmHg 74%
    07:00 +35°C° 0 mm 4 mps 752 mmHg 68%
    08:00 +36°C° 0 mm 4 mps 753 mmHg 62%
    09:00 +37°C° 0 mm 5 mps 753 mmHg 56%
    10:00 +40°C° 0 mm 5 mps 753 mmHg 51%
    11:00 +41°C° 0 mm 5 mps 753 mmHg 45%
    12:00 +43°C° 0 mm 5 mps 752 mmHg 40%
    13:00 +43°C° 0 mm 5 mps 752 mmHg 41%
    14:00 +44°C° 0 mm 6 mps 751 mmHg 41%
    15:00 +44°C° 0 mm 6 mps 750 mmHg 42%
    16:00 +41°C° 0 mm 6 mps 750 mmHg 49%
    17:00 +39°C° 0 mm 7 mps 750 mmHg 56%
    18:00 +36°C° 0 mm 7 mps 750 mmHg 63%
    19:00 +35°C° 0 mm 7 mps 751 mmHg 67%
    20:00 +35°C° 0 mm 6 mps 751 mmHg 71%
    21:00 +34°C° 0 mm 6 mps 752 mmHg 76%
    22:00 +34°C° 0 mm 6 mps 752 mmHg 76%
    23:00 +34°C° 0 mm 5 mps 752 mmHg 77%

    29 May, Wednesday

    Time Temperature Precipitation Wind Pressure Humidity
    00:00 +33°C° 0 mm 5 mps 752 mmHg 78%
    01:00 +33°C° 0 mm 4 mps 751 mmHg 78%
    02:00 +33°C° 0 mm 4 mps 751 mmHg 79%
    03:00 +33°C° 0 mm 4 mps 751 mmHg 80%
    04:00 +33°C° 0 mm 4 mps 751 mmHg 80%
    05:00 +33°C° 0 mm 4 mps 751 mmHg 80%
    06:00 +33°C° 0 mm 4 mps 752 mmHg 80%
    07:00 +33°C° 0 mm 4 mps 752 mmHg 77%
    08:00 +34°C° 0 mm 5 mps 752 mmHg 73%
    09:00 +35°C° 0 mm 5 mps 753 mmHg 69%
    10:00 +37°C° 0 mm 5 mps 753 mmHg 60%
    11:00 +40°C° 0 mm 6 mps 752 mmHg 51%
    12:00 +42°C° 0 mm 6 mps 752 mmHg 42%
    13:00 +43°C° 0 mm 7 mps 751 mmHg 43%
    14:00 +41°C° 0 mm 7 mps 750 mmHg 45%
    15:00 +41°C° 0 mm 7 mps 750 mmHg 46%
    16:00 +40°C° 0 mm 7 mps 750 mmHg 52%
    17:00 +38°C° 0 mm 7 mps 750 mmHg 57%
    18:00 +36°C° 0 mm 7 mps 750 mmHg 62%
    19:00 +35°C° 0 mm 6 mps 750 mmHg 67%
    20:00 +34°C° 0 mm 6 mps 751 mmHg 71%
    21:00 +33°C° 0 mm 6 mps 751 mmHg 75%
    22:00 +33°C° 0 mm 6 mps 751 mmHg 75%
    23:00 +33°C° 0 mm 6 mps 751 mmHg 76%
    Show more